This is the latest recevied weather packets stored in our database for station/object IU1FIL-23. If no packets are shown the sender has not sent any weather packets the latest 10 day(s).
| Time | Temp. | Humidity | Pressure | Rain* | Wind** | Luminosity | Snow |
|---|---|---|---|---|---|---|---|
| 1777700363 | 11.11° C | 43% | 1028 hPa | - | - | - | - |
| 1777699759 | 11.11° C | 43% | 1028 hPa | - | - | - | - |
| 1777699155 | 10.56° C | 43% | 1027.8 hPa | - | - | - | - |
| 1777698551 | 10.56° C | 43% | 1027.8 hPa | - | - | - | - |
| 1777697946 | 11.11° C | 41% | 1027.8 hPa | - | - | - | - |
| 1777697342 | 11.11° C | 41% | 1027.7 hPa | - | - | - | - |
| 1777696738 | 9.44° C | 43% | 1027.7 hPa | - | - | - | - |
| 1777696134 | 9.44° C | 43% | 1027.7 hPa | - | - | - | - |
| 1777695530 | 9.44° C | 43% | 1027.7 hPa | - | - | - | - |
| 1777694926 | 8.89° C | 43% | 1027.8 hPa | - | - | - | - |
| 1777694322 | 8.33° C | 43% | 1027.7 hPa | - | - | - | - |
| 1777693718 | 8.33° C | 43% | 1027.7 hPa | - | - | - | - |
| 1777693114 | 7.78° C | 43% | 1027.7 hPa | - | - | - | - |
| 1777692509 | 8.33° C | 43% | 1027.7 hPa | - | - | - | - |
| 1777691905 | 8.33° C | 44% | 1027.7 hPa | - | - | - | - |
| 1777691301 | 8.33° C | 44% | 1027.7 hPa | - | - | - | - |
| 1777690697 | 8.33° C | 44% | 1027.8 hPa | - | - | - | - |
| 1777690093 | 8.89° C | 43% | 1027.8 hPa | - | - | - | - |
| 1777689489 | 8.89° C | 43% | 1028 hPa | - | - | - | - |
| 1777688885 | 9.44° C | 43% | 1027.9 hPa | - | - | - | - |
| 1777688280 | 8.89° C | 43% | 1028 hPa | - | - | - | - |
| 1777687676 | 8.89° C | 43% | 1027.9 hPa | - | - | - | - |
| 1777687072 | 9.44° C | 43% | 1027.9 hPa | - | - | - | - |
| 1777686468 | 8.89° C | 43% | 1027.8 hPa | - | - | - | - |
| 1777685864 | 9.44° C | 41% | 1027.8 hPa | - | - | - | - |
* Rain since midnight (hover to see other rain measurements)
** Current wind speed in m/s (hover to see current wind gust speed)